Location: Alladorf
(49.9620°N, 11.3790°E)
Time: 20:12:20
(UTC+00:00)

NOSS 3-4 (A) - Pass Details

Date: 29 November 2020
Orbit: 879 x 1333 km, 63.4° (Epoch: 22 January)

Event Time Altitude Azimuth Distance (km) Brightness Sun altitude
Exits shadow 05:48:23 - 268° (W) 2,733 5.3 -9.4°
Reaches altitude 10° 05:48:47 10° 269° (W) 2,604 5.2 -9.3°
Maximum altitude 05:54:17 35° 335° (NNW) 1,503 4.2 -8.5°
Drops below altitude 10° 06:00:17 10° 40° (NE) 2,840 6.2 -7.6°
Sets 06:03:20 0° 50° (NE) 3,871 7.0 -7.2°
